State of Vermont-VT #19949 **No BP**

Lot #0014: 2012 International 7400 Dump Truck

Bidding is closed.
High Bid:$5,200.00
NA
Bidding Ended: Thu, Dec 12  6:19:55 pm ET
High Bidder: tctraders
Bid Increment: $100.00
Starting Bid: $25.00
Item Location: AOT Central Garage, 1756 US Route 302, Berlin, Washington, VT 05602
Item has been viewed 744 times.
Twitter Google Email Pinterest Facebook

***Please review all Auction terms at left side of auction before bidding***

Terms of Sale:
All sales are final. No refunds will be issued. This item is being sold as is, where is, with no warranty, expressed written or implied. The seller shall not be responsible for the correct description, authenticity, genuineness, or defects herein, and makes no warranty in connection therewith. No allowance or set aside will be made on account of any incorrectness, imperfection, defect or damage. Any descriptions or representations are for identification purposes only and are not to be construed as a warranty of any type. It is the responsibility of the buyer to have thoroughly inspected this item and to have satisfied himself or herself as to the condition and value and to bid based upon that judgment solely. The seller shall and will make every reasonable effort to disclose any known defects associated with this item at the buyer request prior to the close of sale. Seller assumes no responsibility for any repairs regardless of any oral statements about the item. Seller is NOT responsible for providing tools or heavy equipment to aid in removal. Items left on seller premises after this removal deadline will revert back to possession of the seller, with no refund.

  • Year: 2012
  • Make: International
  • Model: 7400
  • Body Style: Dump Truck
  • VIN/SN: 1HTWDAZR0CJ536115
  • Odometer Numbers: 102,793
  • Hours: 5,384
  • Engine Make/Model: HT 570
  • Cyl: 6
  • Fuel Type: Diesel
  • Transmission Model: Allison
  • Transmission Type: Auto
  • Tire Condition: Fair
  • Drivetrain: 2WD
  • Does the unit operate?: Yes
  • Does the vehicle start?: Yes
  • Are keys available?: Yes
  • Ownership Documents: Clear Title
  • Mechanical Condition: Fair
  • Mechanical Notes: Engine hard start - Long crank after sitting, air compressor builds air slowly. No liquid tanks, pintle frozen up, engine gallops at 1500 RPM. Hydraulic leaks, transmission leaks at case joint, engine oil leak & exhaust leak.
  • Body Condition: Fair
  • Body Notes: Chassis very rusty
  • Interior Condition: Fair
  • GVWR: 33,001 - 55,000 lbs
  • Titled: Yes

Click on any picture to see a larger image.
Bid Date Bid Amount Bidder
Dec 12, 2019 - 6:18:55 PM $5,200.00 itctraders
Dec 12, 2019 - 6:18:40 PM $5,100.00 itm005
Dec 12, 2019 - 6:18:04 PM $5,000.00 iherco1569
Dec 12, 2019 - 6:18:05 PM $5,000.00 iMBT!!!!
Dec 12, 2019 - 6:18:04 PM $4,750.00 iherco1569
Dec 12, 2019 - 6:18:04 PM $4,700.00 itm005
Dec 12, 2019 - 6:17:46 PM $4,650.00 iherco1569
Dec 12, 2019 - 6:17:46 PM $4,600.00 iMr.cbm
Dec 12, 2019 - 6:17:45 PM $4,450.00 iherco1569
Dec 12, 2019 - 6:17:45 PM $4,400.00 iMBT!!!!
Dec 12, 2019 - 6:17:35 PM $4,300.00 iherco1569
Dec 12, 2019 - 6:17:35 PM $4,250.00 itm005
Dec 12, 2019 - 6:17:25 PM $4,200.00 iherco1569
Dec 12, 2019 - 6:17:25 PM $4,150.00 iMBT!!!!
Dec 12, 2019 - 6:12:54 PM $4,050.00 iMBT!!!!
Dec 12, 2019 - 6:12:54 PM $4,000.00 iR&M Auto Sales
Dec 12, 2019 - 6:11:59 PM $3,650.00 iMBT!!!!
Dec 12, 2019 - 6:11:59 PM $3,600.00 iMr.cbm
Dec 12, 2019 - 6:06:46 PM $3,550.00 iMBT!!!!
Dec 12, 2019 - 5:53:57 PM $3,500.00 iR&M Auto Sales
Dec 12, 2019 - 5:53:58 PM $3,500.00 iherco1569
Dec 12, 2019 - 5:49:48 PM $3,150.00 iR&M Auto Sales
Dec 12, 2019 - 5:49:48 PM $3,100.00 ijws1300
Dec 12, 2019 - 12:26:18 PM $3,050.00 iR&M Auto Sales
Dec 12, 2019 - 12:25:59 PM $3,000.00 iherco1569
Dec 12, 2019 - 12:26:00 PM $3,000.00 iR&M Auto Sales
Dec 12, 2019 - 12:25:46 PM $2,550.00 iherco1569
Dec 12, 2019 - 12:25:46 PM $2,500.00 iR&M Auto Sales
Dec 12, 2019 - 11:57:50 AM $1,775.00 iherco1569
Dec 12, 2019 - 11:57:50 AM $1,750.00 iMBT!!!!
Dec 12, 2019 - 10:26:23 AM $1,575.00 iherco1569
Dec 12, 2019 - 10:26:23 AM $1,550.00 iwhynot
Dec 11, 2019 - 10:05:43 PM $660.00 iherco1569
Dec 11, 2019 - 10:05:43 PM $650.00 iBrown201
Dec 11, 2019 - 6:33:23 PM $620.00 iBrown201
Dec 10, 2019 - 11:45:05 PM $610.00 iDanield0420
Dec 10, 2019 - 11:44:41 PM $600.00 ibobbyo694
Dec 10, 2019 - 11:44:41 PM $590.00 iDanield0420
Dec 10, 2019 - 11:44:37 PM $580.00 ibobbyo694
Dec 10, 2019 - 11:44:37 PM $570.00 iDanield0420
Dec 10, 2019 - 11:44:33 PM $560.00 ibobbyo694
Dec 10, 2019 - 11:44:33 PM $550.00 iDanield0420
Dec 10, 2019 - 11:44:29 PM $540.00 ibobbyo694
Dec 10, 2019 - 11:44:29 PM $530.00 iDanield0420
Dec 10, 2019 - 10:28:46 AM $520.00 ibobbyo694
Dec 10, 2019 - 7:28:43 AM $510.00 iDelong95
Dec 10, 2019 - 7:28:35 AM $500.00 ibobbyo694
Dec 10, 2019 - 7:28:36 AM $500.00 iDelong95
Dec 10, 2019 - 7:28:25 AM $440.00 ibobbyo694
Dec 10, 2019 - 7:28:25 AM $430.00 iDelong95
Dec 10, 2019 - 7:28:17 AM $420.00 ibobbyo694
Dec 10, 2019 - 7:28:17 AM $410.00 iDelong95
Dec 8, 2019 - 11:45:15 PM $400.00 ibobbyo694
Dec 8, 2019 - 11:45:15 PM $390.00 iHuntbig
Dec 8, 2019 - 11:45:12 PM $380.00 ibobbyo694
Dec 8, 2019 - 11:45:12 PM $370.00 iHuntbig
Dec 8, 2019 - 11:45:09 PM $360.00 ibobbyo694
Dec 8, 2019 - 11:45:09 PM $350.00 iHuntbig
Dec 8, 2019 - 11:45:07 PM $340.00 ibobbyo694
Dec 8, 2019 - 11:45:07 PM $330.00 iHuntbig
Dec 8, 2019 - 11:45:04 PM $320.00 ibobbyo694
Dec 8, 2019 - 11:45:04 PM $310.00 iHuntbig
Dec 8, 2019 - 6:04:10 PM $300.00 ibobbyo694
Dec 8, 2019 - 6:04:10 PM $290.00 iHuntbig
Dec 8, 2019 - 6:04:07 PM $280.00 ibobbyo694
Dec 8, 2019 - 6:04:07 PM $270.00 iHuntbig
Dec 7, 2019 - 10:28:01 AM $260.00 ibobbyo694
Dec 7, 2019 - 10:28:01 AM $250.00 iDelong95
Dec 6, 2019 - 11:13:08 AM $105.00 iDelong95
Dec 6, 2019 - 11:13:08 AM $100.00 ijp62378
Dec 5, 2019 - 8:23:47 PM $80.00 ijp62378
Dec 5, 2019 - 8:23:47 PM $77.50 iHuntbig
Dec 5, 2019 - 8:23:44 PM $75.00 ijp62378
Dec 5, 2019 - 8:23:44 PM $72.50 iHuntbig
Dec 5, 2019 - 8:23:40 PM $70.00 ijp62378
Dec 5, 2019 - 8:23:40 PM $67.50 iHuntbig
Dec 5, 2019 - 8:23:38 PM $65.00 ijp62378
Dec 5, 2019 - 8:23:38 PM $62.50 iHuntbig
Dec 5, 2019 - 8:23:34 PM $60.00 ijp62378
Dec 5, 2019 - 8:23:34 PM $57.50 iHuntbig
Dec 5, 2019 - 9:40:51 AM $55.00 ijp62378
Dec 5, 2019 - 9:40:51 AM $52.50 iHuntbig
Dec 5, 2019 - 9:40:47 AM $50.00 ijp62378
Dec 5, 2019 - 9:40:47 AM $47.50 iHuntbig
Dec 5, 2019 - 9:40:45 AM $45.00 ijp62378
Dec 5, 2019 - 9:40:45 AM $42.50 iHuntbig
Dec 5, 2019 - 9:40:39 AM $40.00 ijp62378
Dec 5, 2019 - 9:40:39 AM $39.00 iHuntbig
Dec 5, 2019 - 9:39:18 AM $38.00 ijp62378
Dec 5, 2019 - 9:39:18 AM $37.00 iHuntbig
Dec 5, 2019 - 9:39:14 AM $36.00 ijp62378
Dec 5, 2019 - 9:39:14 AM $35.00 iHuntbig
Dec 5, 2019 - 9:39:11 AM $34.00 ijp62378
Dec 5, 2019 - 9:39:11 AM $33.00 iHuntbig
Dec 5, 2019 - 9:39:07 AM $32.00 ijp62378
Dec 5, 2019 - 9:39:07 AM $31.00 iHuntbig
Dec 5, 2019 - 9:39:04 AM $30.00 ijp62378
Dec 5, 2019 - 9:39:04 AM $29.00 iHuntbig
Dec 5, 2019 - 9:38:07 AM $28.00 ijp62378
Dec 3, 2019 - 5:10:45 PM $27.00 iHuntbig
Dec 3, 2019 - 5:00:48 PM $26.00 ijp62378
Dec 2, 2019 - 6:04:44 PM $25.00 iHuntbig